BEIDOU-3 M18 (C37)

Last updated on Sat Aug 15 2026 00:03:26 GMT+0000 (Coordinated Universal Time)

1 43707U 18093B 26225.62864807 .00000005 00000+0 00000+0 0 9993 2 43707 54.1696 180.3407 0007926 328.7936 31.1120 1.86226602 52603
UTC large
Height (km)
Speed (km/s)
/
Latitude / Longitude
Inclination (degrees)
Orbital Period (minutes)
Azimuth
Elevation
Range (km)
Doppler Factor

Next 0 passes for location: London (51.5072 / 0.1276)

No passes found over London.
BEIDOU-3 M18 (C37)